Hebron, NE

6:06 PM CDT on March 27, 2017 (GMT -0500)
Hebron Municipal

Weather History for KHJH - November, 2012

Change the Weather History Date:

Sunday, November 25, 2012

  Actual Average Record
Temperature  
Mean Temperature 41 °F -  
Max Temperature 52 °F 46 °F 72 °F (1990)
Min Temperature 30 °F 24 °F 5 °F (1993)
Degree Days  
Heating Degree Days 24    
Moisture  
Dew Point 27 °F    
Average Humidity 64    
Maximum Humidity 85    
Minimum Humidity 41    
Precipitation  
Precipitation 0.00 in - - ()
Sea Level Pressure  
Sea Level Pressure 29.98 in    
Wind  
Wind Speed 4 mph (NNE)    
Max Wind Speed 12 mph    
Max Gust Speed 18 mph    
Visibility 10 miles    
Events      
Averages and records for this station are not official NWS values.
T = Trace of Precipitation, MM = Missing Value Source: NWS Daily Summary

Daily Weather History Graph

Daily Weather History Graph

Search for Another Location

Airport or City:

Trip Planner

Search our weather history database for the weather conditions in past years. The results will help you decide how hot, cold, wet, or windy it might be!

Date:

Astronomy

Nov. 25, 2012 Rise Set
Actual Time 7:27 AM CST 5:07 PM CST
Civil Twilight 6:57 AM CST 5:36 PM CST
Nautical Twilight 6:24 AM CST 6:10 PM CST
Astronomical Twilight 5:51 AM CST 6:42 PM CST
Moon 3:24 PM CST (11/25) 4:42 AM CST (11/25)
Length of Visible Light 10h 38m
Length of Day
9h 39m
Waxing Gibbous, 93% of the Moon is Illuminated
Nov 25
Waxing Gibbous
Nov 28
Full
Dec 6
Last Quarter
Dec 13
New
Dec 19
First Quarter

Hourly Weather History & Observations

Time (CST) Temp. Windchill Dew Point Humidity Pressure Visibility Wind Dir Wind Speed Gust Speed Precip Events Conditions
12:15 AM 31.6 °F - 25.5 °F 78% 29.89 in 10.0 mi Calm Calm - N/A   Clear
12:35 AM 32.2 °F - 25.5 °F 76% 29.89 in 10.0 mi Calm Calm - N/A   Clear
12:55 AM 31.5 °F - 25.2 °F 78% 29.89 in 10.0 mi Calm Calm - N/A   Clear
1:15 AM 32.0 °F - 25.2 °F 76% 29.89 in 10.0 mi Calm Calm - N/A   Clear
1:35 AM 32.0 °F 28.7 °F 24.8 °F 75% 29.89 in 10.0 mi WNW 3.5 mph - N/A   Clear
1:55 AM 31.5 °F 26.8 °F 23.9 °F 74% 29.89 in 10.0 mi NW 4.6 mph - N/A   Clear
2:15 AM 33.3 °F 28.9 °F 23.9 °F 69% 29.89 in 10.0 mi NNW 4.6 mph - N/A   Clear
2:35 AM 35.1 °F - 24.8 °F 66% 29.90 in 10.0 mi Calm Calm - N/A   Clear
2:55 AM 36.0 °F - 24.4 °F 63% 29.90 in 10.0 mi Calm Calm - N/A   Clear
3:15 AM 36.5 °F 32.7 °F 24.4 °F 62% 29.90 in 10.0 mi NNW 4.6 mph - N/A   Clear
3:35 AM 36.0 °F 32.1 °F 24.4 °F 63% 29.91 in 10.0 mi NNW 4.6 mph - N/A   Clear
3:55 AM 36.9 °F 33.1 °F 24.8 °F 62% 29.91 in 10.0 mi NNW 4.6 mph - N/A   Clear
4:15 AM 36.0 °F 33.3 °F 24.6 °F 63% 29.92 in 10.0 mi NW 3.5 mph - N/A   Clear
4:35 AM 35.8 °F 33.0 °F 24.8 °F 64% 29.92 in 10.0 mi WNW 3.5 mph - N/A   Clear
4:55 AM 35.4 °F 31.5 °F 25.2 °F 66% 29.91 in 10.0 mi NNW 4.6 mph - N/A   Clear
5:15 AM 35.2 °F 32.4 °F 25.5 °F 68% 29.92 in 10.0 mi WNW 3.5 mph - N/A   Clear
5:35 AM 35.2 °F 32.4 °F 25.3 °F 67% 29.93 in 10.0 mi NW 3.5 mph - N/A   Clear
5:55 AM 34.7 °F 31.8 °F 25.5 °F 69% 29.93 in 10.0 mi NNW 3.5 mph - N/A   Clear
6:15 AM 34.7 °F 28.1 °F 25.7 °F 70% 29.93 in 10.0 mi NNW 8.1 mph - N/A   Clear
6:35 AM 35.1 °F 29.3 °F 26.1 °F 70% 29.94 in 10.0 mi NNW 6.9 mph - N/A   Clear
6:55 AM 35.6 °F 29.9 °F 26.2 °F 69% 29.95 in 10.0 mi NNW 6.9 mph - N/A   Clear
7:15 AM 35.4 °F 31.5 °F 26.2 °F 69% 29.95 in 10.0 mi NNW 4.6 mph - N/A   Clear
7:35 AM 34.2 °F 31.2 °F 26.4 °F 73% 29.95 in 10.0 mi North 3.5 mph - N/A   Clear
7:55 AM 35.1 °F - 26.6 °F 71% 29.97 in 10.0 mi Calm Calm - N/A   Clear
8:15 AM 35.6 °F - 27.3 °F 72% 29.98 in 10.0 mi Calm Calm - N/A   Clear
8:35 AM 38.8 °F - 29.1 °F 68% 29.99 in 10.0 mi Calm Calm - N/A   Clear
8:55 AM 43.5 °F 38.9 °F 30.6 °F 60% 30.00 in 10.0 mi North 8.1 mph - N/A   Clear
9:15 AM 43.3 °F 37.7 °F 30.4 °F 60% 30.00 in 10.0 mi NNE 10.4 mph - N/A   Clear
9:55 AM 43.7 °F 38.1 °F 30.4 °F 59% 30.00 in 10.0 mi ENE 10.4 mph - N/A   Clear
10:15 AM 44.6 °F 39.7 °F 30.7 °F 58% 30.01 in 10.0 mi NE 9.2 mph - N/A   Clear
10:35 AM 45.7 °F 41.5 °F 30.9 °F 56% 30.02 in 10.0 mi NE 8.1 mph - N/A   Clear
10:55 AM 46.4 °F 42.9 °F 31.1 °F 55% 30.01 in 10.0 mi NE 6.9 mph - N/A   Clear
11:15 AM 48.0 °F - 31.5 °F 53% 30.00 in 10.0 mi NNE 8.1 mph - N/A   Clear
11:35 AM 49.1 °F - 31.8 °F 51% 29.99 in 10.0 mi NE 6.9 mph - N/A   Clear
11:55 AM 50.4 °F - 31.1 °F 48% 29.98 in 10.0 mi NNE 9.2 mph - N/A   Clear
12:15 PM 51.8 °F - 31.3 °F 46% 29.98 in 10.0 mi NNE 10.4 mph - N/A   Clear
12:35 PM 51.6 °F - 31.1 °F 45% 29.97 in 10.0 mi NNE 9.2 mph - N/A   Clear
12:55 PM 52.0 °F - 30.6 °F 44% 29.97 in 10.0 mi NE 8.1 mph - N/A   Clear
1:15 PM 51.8 °F - 30.0 °F 43% 29.96 in 10.0 mi NE 9.2 mph - N/A   Clear
1:35 PM 52.3 °F - 29.1 °F 41% 29.95 in 10.0 mi NE 10.4 mph - N/A   Clear
1:55 PM 52.7 °F - 29.3 °F 41% 29.95 in 10.0 mi NE 10.4 mph - N/A   Clear
2:15 PM 52.3 °F - 28.9 °F 41% 29.94 in 10.0 mi NNE 10.4 mph - N/A   Clear
2:35 PM 52.0 °F - 28.9 °F 41% 29.95 in 10.0 mi NE 10.4 mph - N/A   Clear
2:55 PM 51.8 °F - 28.6 °F 41% 29.95 in 10.0 mi NNE 11.5 mph 18.4 mph N/A   Clear
3:15 PM 51.3 °F - 28.6 °F 42% 29.95 in 10.0 mi NE 10.4 mph 16.1 mph N/A   Clear
3:35 PM 50.9 °F - 28.8 °F 43% 29.95 in 10.0 mi NE 11.5 mph - N/A   Clear
3:55 PM 49.1 °F - 27.9 °F 44% 29.95 in 10.0 mi NE 10.4 mph - N/A   Clear
4:15 PM 48.2 °F - 28.0 °F 46% 29.96 in 10.0 mi NE 8.1 mph - N/A   Clear
4:35 PM 46.6 °F - 28.4 °F 49% 29.96 in 10.0 mi NE 9.2 mph - N/A   Clear
4:55 PM 45.1 °F 40.3 °F 27.5 °F 50% 29.97 in 10.0 mi NE 9.2 mph - N/A   Clear
5:15 PM 43.0 °F 38.2 °F 27.3 °F 54% 29.97 in 10.0 mi NE 8.1 mph - N/A   Clear
5:35 PM 41.2 °F 35.5 °F 27.3 °F 58% 29.98 in 10.0 mi NE 9.2 mph - N/A   Clear
5:55 PM 39.2 °F 34.2 °F 27.5 °F 63% 29.98 in 10.0 mi NE 6.9 mph - N/A   Clear
6:15 PM 37.2 °F 31.9 °F 27.0 °F 66% 30.00 in 10.0 mi NE 6.9 mph - N/A   Clear
6:35 PM 35.8 °F 31.9 °F 26.6 °F 69% 30.00 in 10.0 mi ENE 4.6 mph - N/A   Clear
6:55 PM 34.0 °F 28.8 °F 26.2 °F 73% 30.01 in 10.0 mi ENE 5.8 mph - N/A   Clear
7:15 PM 32.9 °F 28.5 °F 26.1 °F 76% 30.02 in 10.0 mi ENE 4.6 mph - N/A   Clear
7:35 PM 32.4 °F 27.9 °F 25.7 °F 76% 30.03 in 10.0 mi NE 4.6 mph - N/A   Clear
7:55 PM 32.0 °F 27.5 °F 25.7 °F 78% 30.03 in 10.0 mi NE 4.6 mph - N/A   Clear
8:15 PM 31.1 °F 26.4 °F 25.5 °F 80% 30.04 in 10.0 mi NNE 4.6 mph - N/A   Clear
8:35 PM 31.6 °F 25.1 °F 26.2 °F 80% 30.04 in 10.0 mi NE 6.9 mph - N/A   Clear
8:55 PM 31.6 °F 26.0 °F 26.6 °F 82% 30.05 in 10.0 mi NE 5.8 mph - N/A   Clear
9:15 PM 31.8 °F 26.2 °F 26.6 °F 81% 30.06 in 10.0 mi NE 5.8 mph - N/A   Clear
9:35 PM 31.8 °F 28.5 °F 26.6 °F 81% 30.08 in 10.0 mi NE 3.5 mph - N/A   Clear
9:55 PM 30.9 °F 27.5 °F 26.1 °F 82% 30.08 in 10.0 mi ENE 3.5 mph - N/A   Clear
10:15 PM 31.1 °F 27.7 °F 26.6 °F 83% 30.09 in 10.0 mi ENE 3.5 mph - N/A   Clear
10:35 PM 30.9 °F 27.5 °F 26.6 °F 84% 30.09 in 10.0 mi ENE 3.5 mph - N/A   Clear
10:55 PM 31.1 °F 27.7 °F 27.0 °F 85% 30.10 in 10.0 mi ENE 3.5 mph - N/A   Clear
11:15 PM 30.7 °F 26.0 °F 26.6 °F 85% 30.11 in 10.0 mi NNE 4.6 mph - N/A   Clear
11:35 PM 31.6 °F 27.0 °F 27.1 °F 83% 30.11 in 10.0 mi NE 4.6 mph - N/A   Clear
11:55 PM 31.6 °F 25.1 °F 27.1 °F 83% 30.12 in 10.0 mi NNE 6.9 mph - N/A   Clear